GFSNIL_sfc_wetblb_000.txt.gz
Wetbulb
33.95 33.60 33.56 31.92 32.56 31.49 31.95 31.96 29.96 28.77 28.29 27.96 27.32 26.98 26.82 26.37 25.67 25.05 25.22 24.29 24.37 24.93
33.12 32.89 32.45 30.25 30.50 31.26 31.57 30.77 28.38 28.76 27.59 26.86 26.92 26.71 26.22 26.27 25.19 24.97 24.82 24.14 24.53 24.60
33.71 34.06 32.73 30.66 30.58 30.06 30.37 28.69 27.42 28.05 27.58 26.49 26.83 26.53 26.14 25.36 24.47 24.35 24.10 24.46 24.29 24.30
30.80 31.65 31.50 30.50 30.75 30.68 29.46 28.27 27.41 28.10 27.33 26.54 26.39 26.30 26.00 25.47 24.39 24.29 23.43 23.59 23.67 23.36
31.25 30.32 30.06 30.45 30.38 30.01 28.98 28.15 28.24 27.87 27.09 26.86 26.84 26.16 26.03 24.57 24.35 23.63 22.76 22.97 22.69 21.64
30.87 29.77 30.99 31.70 31.03 29.89 29.69 28.26 28.22 27.70 26.91 26.67 26.57 25.71 26.17 25.57 24.39 24.01 23.81 23.01 21.83 20.48
30.33 31.01 32.61 32.93 31.55 29.50 29.67 28.34 27.77 27.69 27.56 27.10 26.83 26.26 26.11 25.39 24.24 23.62 23.27 22.76 21.83 19.89
32.28 30.91 31.54 31.56 31.68 29.09 28.72 28.90 28.33 27.27 26.93 26.74 26.47 26.17 25.59 25.50 23.82 22.46 21.77 21.05 20.84 19.67
32.15 31.39 29.77 31.09 30.74 28.00 27.79 27.69 27.15 26.84 26.23 25.07 26.24 29.91 30.29 27.04 23.77 22.82 21.19 19.43 19.30 18.92
30.06 29.81 30.58 28.29 27.56 27.06 26.71 27.28 26.44 26.19 25.79 24.93 25.71 30.65 31.42 30.36 24.10 22.59 21.02 19.95 18.97 17.89
28.25 27.78 27.48 25.20 26.20 25.16 25.10 25.64 25.04 25.52 25.34 25.31 25.00 30.66 32.25 30.53 23.47 22.32 20.81 19.83 19.42 18.75
27.20 25.90 25.36 23.52 23.80 24.47 24.99 25.11 25.95 26.02 25.10 24.74 24.67 30.12 32.24 29.36 21.99 21.78 19.70 19.67 19.72 19.33
25.18 23.03 22.65 21.48 20.08 21.92 24.52 24.72 24.27 23.85 24.36 23.94 23.57 29.18 31.50 29.12 21.16 19.12 18.45 19.09 19.15 21.29
27.00 23.59 22.42 23.20 18.67 20.15 21.23 20.05 19.26 19.76 21.59 22.21 22.31 24.97 30.98 30.72 21.42 19.90 18.23 17.68 17.10 18.83

GFSNIL_sfc_wetblb_003.txt.gz
Wetbulb
36.70 36.67 36.31 35.55 36.10 34.79 34.72 34.70 34.67 33.27 33.92 33.03 32.06 31.89 32.14 32.25 32.24 31.83 32.06 31.08 30.90 30.98
34.84 35.19 34.97 33.89 34.53 35.28 35.76 35.06 34.11 32.68 31.71 31.55 31.27 31.14 30.96 30.71 29.91 29.97 30.80 30.61 30.35 30.45
34.59 34.71 34.46 32.99 32.51 33.18 33.94 33.12 31.70 31.75 31.84 31.24 31.28 30.81 30.47 30.51 29.83 29.32 29.20 29.46 29.20 29.05
33.74 34.05 33.91 31.95 32.07 32.71 32.64 31.62 30.86 30.81 30.99 30.10 29.75 29.74 29.60 29.97 28.73 28.40 28.23 28.20 28.10 27.50
34.22 33.00 32.20 32.79 32.47 32.37 31.74 31.13 31.09 30.39 30.24 29.93 29.72 29.26 29.16 28.33 28.08 28.11 26.96 26.85 26.89 26.43
34.31 34.39 33.26 32.93 33.33 32.10 32.24 31.11 30.79 30.25 29.67 29.24 29.31 29.03 29.25 29.43 28.48 28.27 28.32 27.26 26.19 25.65
32.81 33.15 33.59 33.95 33.99 33.26 31.88 31.47 30.75 30.52 30.30 29.92 29.37 29.09 28.80 28.92 28.38 27.77 27.89 27.42 27.00 25.53
32.17 32.32 32.29 32.55 32.81 33.24 32.07 31.47 30.99 30.52 30.27 30.20 29.16 28.65 28.35 28.51 28.20 27.46 26.93 26.44 26.13 25.53
31.40 30.79 30.44 31.33 30.85 31.02 31.52 30.88 30.81 29.64 29.45 28.98 28.96 31.94 32.50 29.83 27.83 27.19 26.29 24.56 24.85 24.88
30.84 29.35 28.65 29.48 29.49 28.94 29.90 30.28 29.10 29.38 29.08 28.54 29.12 33.25 33.59 32.56 27.95 26.75 26.28 25.31 24.01 22.73
27.02 26.36 27.56 27.58 27.76 27.86 28.08 28.26 28.26 28.67 28.89 28.73 29.05 32.27 33.84 32.75 28.49 26.77 26.31 25.22 24.08 22.98
23.96 22.75 26.00 26.15 26.19 26.47 25.62 26.29 27.64 28.56 28.45 27.99 28.54 31.65 33.31 33.05 29.19 25.67 25.40 24.52 24.28 23.61
21.38 21.76 25.28 25.15 25.83 26.03 24.31 24.96 26.04 25.89 26.57 26.98 27.07 30.50 31.74 33.24 29.92 25.02 23.92 23.07 22.66 24.34
18.13 19.20 21.29 22.47 24.75 24.71 23.58 23.50 23.23 22.84 23.90 23.78 25.19 26.08 30.66 32.91 29.74 24.58 23.22 21.33 20.67 21.29

GFSNIL_sfc_wetblb_006.txt.gz
Wetbulb
40.24 40.85 41.70 42.10 42.29 42.33 42.28 42.14 41.70 40.93 41.16 41.07 40.70 40.34 40.08 39.81 39.27 39.07 39.69 40.14 40.79 39.70
39.71 39.52 39.57 40.14 40.47 40.97 41.67 41.08 41.23 40.32 39.38 40.19 40.11 39.46 38.85 37.81 37.50 37.72 38.11 38.42 39.03 38.52
39.26 39.08 38.91 39.12 38.21 38.36 39.69 39.79 38.70 39.36 38.57 39.38 39.00 37.96 37.53 37.39 37.37 36.24 36.70 36.76 36.57 36.16
38.02 38.37 38.38 37.68 38.37 38.10 37.98 38.04 37.58 37.70 37.32 37.55 37.15 37.19 36.53 36.83 36.51 34.79 35.41 34.64 34.91 34.84
35.67 36.04 35.95 36.65 37.56 37.93 37.16 37.60 36.68 36.94 35.96 35.72 35.20 36.13 35.32 34.93 34.51 33.58 33.41 33.68 33.27 33.59
33.97 33.93 33.53 33.42 35.54 36.27 36.48 35.35 36.50 35.42 35.19 34.45 34.06 34.05 34.36 34.50 34.11 32.99 33.98 33.60 31.96 31.99
33.42 33.21 32.69 32.18 32.75 33.85 34.96 35.39 34.66 34.62 34.24 34.50 34.31 33.62 33.58 33.01 33.55 33.31 33.23 33.99 32.93 31.62
33.42 33.58 32.51 31.87 31.68 32.52 32.47 32.93 33.97 33.27 32.90 32.80 32.53 32.03 32.58 32.10 31.98 32.15 31.75 32.12 31.95 31.55
31.77 31.49 29.92 29.79 29.98 30.49 30.63 31.22 32.31 31.72 32.30 32.18 31.51 33.68 34.86 33.18 31.10 31.13 30.55 31.00 31.32 30.68
29.20 28.31 27.51 27.22 28.62 29.38 28.85 30.33 29.69 30.62 31.37 31.27 32.29 34.32 34.93 34.19 31.88 31.27 31.11 30.98 30.44 29.17
27.34 25.59 25.00 24.81 25.66 28.73 29.03 28.63 28.69 29.15 30.23 30.67 31.17 33.37 34.48 34.00 32.40 31.73 31.38 30.78 30.58 29.54
25.49 22.85 21.73 20.32 22.17 25.24 26.24 27.43 28.59 28.98 29.55 30.32 31.33 32.62 33.31 33.55 32.16 30.89 30.56 30.39 30.60 30.16
23.26 20.11 18.53 19.74 19.94 21.99 24.02 25.39 27.04 27.72 28.69 29.36 29.63 31.35 32.06 31.96 31.93 31.00 30.68 30.10 28.99 29.41
19.67 17.87 17.36 17.08 18.05 18.70 19.45 20.93 22.12 24.51 26.90 28.03 28.83 29.44 30.96 31.58 30.68 30.75 30.99 30.11 28.32 27.50

GFSNIL_sfc_wetblb_009.txt.gz
Wetbulb
41.53 41.01 41.08 41.24 41.49 41.99 42.78 43.73 45.06 43.95 43.87 43.60 43.40 43.01 42.52 41.51 40.87 40.74 40.79 40.95 41.49 40.91
39.87 40.02 39.93 40.20 40.33 39.95 40.48 40.87 41.47 42.25 42.06 41.79 41.82 41.22 41.09 40.04 39.41 39.38 39.70 39.58 40.19 39.85
37.46 37.97 38.20 39.36 39.05 39.20 39.42 39.16 38.68 39.24 39.75 39.73 39.89 39.78 39.38 38.82 38.79 38.29 38.11 38.23 38.14 38.48
35.78 35.61 35.79 35.11 36.19 36.87 37.79 38.07 37.85 37.50 37.39 37.52 37.45 38.40 37.84 37.37 37.33 36.55 36.81 36.65 36.39 36.57
35.15 34.84 33.87 32.97 33.40 34.61 34.94 36.13 36.71 36.38 35.96 35.81 36.06 36.57 36.23 35.62 34.90 35.49 35.11 35.22 34.69 35.08
34.00 33.85 32.92 32.15 32.18 32.48 33.13 33.22 34.24 35.43 34.94 34.80 34.99 34.90 35.35 35.42 34.72 34.80 35.20 35.08 34.54 33.88
32.68 32.82 32.90 31.83 31.37 31.23 32.01 31.95 32.27 32.65 33.54 34.04 34.01 33.56 33.97 33.40 33.36 33.73 34.20 34.18 34.41 33.68
31.52 31.73 31.77 30.64 29.64 29.71 30.66 31.36 31.61 31.41 31.56 32.23 32.79 32.19 32.19 32.59 32.22 31.82 32.31 33.16 32.65 33.66
29.16 29.39 29.19 28.83 27.85 27.48 28.09 29.83 30.40 29.83 29.81 30.27 31.39 33.86 34.89 34.09 31.89 31.34 30.79 30.85 32.44 32.48
27.87 27.41 27.68 27.24 26.06 25.31 25.32 26.94 27.96 28.14 28.97 29.00 30.09 33.05 34.01 34.90 32.61 31.79 31.27 30.72 30.81 30.86
26.88 25.44 26.00 25.31 23.80 23.25 23.98 24.04 24.66 25.52 26.87 27.97 29.00 32.02 33.34 33.92 32.71 31.97 31.83 31.52 30.96 30.43
24.85 23.26 23.25 21.85 21.16 21.45 21.29 21.29 21.28 22.62 23.59 25.12 26.65 30.43 32.01 32.26 31.80 31.24 31.25 31.82 31.96 31.28
22.13 20.57 19.41 19.75 19.11 19.59 18.87 18.52 19.51 19.73 21.20 21.83 22.37 27.43 29.78 30.33 30.12 30.06 30.27 31.26 31.38 31.67
17.50 16.04 15.65 15.33 15.72 15.00 14.19 14.66 13.83 14.91 16.44 17.85 19.95 22.12 27.24 29.84 28.72 29.21 29.26 30.04 30.66 31.45

GFSNIL_sfc_wetblb_012.txt.gz
Wetbulb
35.67 36.19 36.60 36.20 36.15 35.58 35.50 35.75 36.38 36.63 37.70 38.84 39.33 39.06 38.00 35.85 35.40 35.05 36.14 34.34 34.57 35.12
33.25 32.94 32.65 33.32 34.46 34.98 35.52 36.91 35.78 35.28 35.31 35.69 36.76 36.62 36.41 34.52 33.57 34.07 33.89 35.14 34.50 33.96
31.90 31.72 31.17 30.79 30.48 31.55 32.94 33.99 34.25 34.11 34.18 34.46 34.59 34.64 34.05 33.26 33.22 32.75 32.56 33.46 33.17 33.30
31.13 31.42 30.88 29.32 29.63 30.20 30.92 31.87 32.65 33.41 32.88 32.44 32.55 33.14 32.51 32.58 32.63 32.15 31.81 32.05 31.57 31.95
30.86 30.44 29.57 29.18 29.15 29.02 30.23 31.22 31.75 31.98 32.18 32.12 32.06 32.04 31.31 31.51 31.57 30.86 31.01 31.37 31.32 31.45
28.19 27.97 28.01 27.95 27.70 28.03 28.50 29.52 30.05 30.45 30.65 31.13 31.32 31.51 31.93 31.21 31.70 31.59 31.13 31.60 31.38 32.72
26.10 26.80 27.09 27.53 27.14 25.98 26.56 26.53 26.50 28.69 29.49 29.77 30.67 31.04 31.00 30.85 30.91 31.44 31.89 31.84 32.02 32.47
26.79 26.78 26.11 25.21 25.57 25.23 24.67 25.23 25.71 26.67 27.72 28.55 29.07 29.53 29.75 29.92 30.43 30.85 31.16 31.59 31.51 32.11
26.23 26.66 25.81 25.46 25.55 25.25 24.29 23.03 23.20 23.68 24.56 25.55 27.52 30.95 33.03 32.88 30.73 31.38 31.03 30.54 31.21 31.62
23.90 24.59 24.83 24.32 24.10 24.20 23.43 23.19 21.91 21.90 22.27 22.66 23.93 28.84 30.26 31.86 29.98 30.24 30.63 30.74 30.76 30.95
22.41 21.70 22.12 21.89 21.43 21.66 21.90 21.24 20.70 20.36 20.49 20.35 21.41 26.06 27.59 29.22 28.35 28.17 28.88 30.03 30.51 30.35
20.22 18.65 18.62 17.29 17.54 18.25 17.74 17.37 17.36 18.69 18.08 17.49 18.12 23.49 24.97 25.34 23.68 24.90 26.45 28.37 29.71 30.34
16.59 14.04 13.30 13.73 13.24 13.66 13.05 13.65 14.51 14.21 15.05 15.32 14.45 19.61 21.53 22.04 20.04 20.08 22.74 25.71 27.70 30.25
11.88 9.87 9.31 8.93 9.12 8.35 7.72 8.64 7.24 7.97 8.89 9.61 11.25 12.29 18.23 20.23 18.07 18.47 19.84 22.05 24.70 27.48

GFSNIL_sfc_wetblb_015.txt.gz
Wetbulb
31.79 31.50 31.63 31.92 32.08 32.43 32.42 33.34 34.07 34.06 33.87 34.05 34.77 35.70 36.85 35.22 34.22 34.07 34.57 36.92 36.27 37.70
30.29 29.60 28.94 29.03 29.50 30.10 30.60 32.33 32.32 32.32 32.16 32.58 32.85 33.00 33.35 32.89 32.44 32.44 32.86 33.43 34.58 36.11
30.13 30.17 29.05 28.05 27.45 27.89 28.83 29.30 29.56 30.22 31.06 31.36 31.15 31.31 31.10 30.89 31.23 31.13 31.71 32.43 31.66 32.98
29.09 29.28 28.73 27.60 27.40 27.15 27.11 27.96 28.19 29.01 28.77 29.32 29.84 29.64 29.64 30.08 30.50 30.11 30.43 30.94 30.54 31.25
28.42 28.10 27.05 27.25 26.89 26.22 25.90 26.31 26.83 27.82 27.98 28.13 28.61 28.96 28.93 29.44 30.88 29.82 30.34 30.73 30.31 30.61
26.21 25.74 25.78 25.78 26.63 26.86 25.94 25.14 25.06 25.54 25.47 26.27 27.50 27.86 28.50 28.86 29.12 29.90 30.77 31.26 31.22 31.30
24.06 24.59 24.82 25.09 24.89 25.06 25.16 24.11 23.85 24.17 24.89 25.34 26.21 26.57 27.53 28.31 28.57 28.82 29.80 30.79 31.26 31.30
24.67 25.53 25.14 24.68 24.89 24.66 24.19 24.51 24.00 23.62 23.32 23.32 23.82 25.20 25.24 26.25 26.68 27.53 28.59 29.67 30.25 30.99
24.30 25.01 24.90 24.64 24.82 24.62 24.19 23.65 23.51 23.25 22.74 21.91 23.41 26.73 28.15 27.62 25.21 25.87 26.45 26.82 28.46 30.04
22.02 22.05 22.57 22.73 22.27 21.42 20.59 20.88 20.45 20.75 21.00 20.75 21.28 25.57 26.46 26.74 24.46 23.53 23.54 24.56 26.24 27.80
20.43 18.61 18.77 18.26 17.39 17.26 17.42 17.01 17.10 17.24 17.38 17.17 18.45 22.96 23.94 24.15 21.91 21.39 21.74 22.47 23.88 25.39
16.17 13.96 14.19 12.26 12.46 13.14 12.78 12.39 11.96 13.25 12.65 12.32 12.88 18.08 19.12 19.20 16.79 17.15 17.49 19.45 20.50 21.71
13.75 9.86 9.63 9.92 8.88 9.20 8.62 9.35 9.93 9.11 9.33 8.97 7.64 13.30 15.34 16.03 13.37 12.08 13.82 15.55 18.01 20.97
10.15 7.81 6.92 6.54 6.86 5.86 5.04 5.95 4.33 4.91 5.59 5.86 7.14 7.60 13.58 15.65 13.89 13.19 12.98 13.79 15.21 18.10